Date String (YYYY-MM-DD hh:mm:ss) UTC,Instrument flags,absolute air pressure of the measurement (hPa),sample flow rate (lpm),inlet stack bypass flow (lpm),air temperature of the measurement (°C),ambient temperature measured by the external sensor (°C),aerosol sample conditioner tube jacket temperature (°C),OPC LED temperature (°C),internal box temperature (°C),relative humidity of the measurement (%),span deviation,mass concentration of particles derived from Lorenz-Mie calculation of OPC scattering (μg/m³),mass concentration of particles derived from Lorenz-Mie calculation of OPC scattering (μg/m³),mass concentration of particles derived from Lorenz-Mie calculation of OPC scattering (μg/m³)
DateTimeUTC,F1_M11,P_M11,Q1_M11,Q2_M11,T1_M11,T2_M11,T3_M11,T4_M11,T5_M11,U1_M11,ZSPAN_M11,X0_M11,X2_M11,X1_M11
2023-10-23 19:00:00,SystemResetWarning,0822.2,5.01,000.00,028.4,024.9,000.0,036.8,029.8,13.8,0000.0,0012.02,0005.19,0004.14
2023-10-23 19:01:00,SystemResetWarning,0822.1,5.00,000.00,028.3,025.3,000.0,036.8,029.9,13.7,0000.0,0011.73,0005.20,0004.13
2023-10-23 19:02:00,SystemResetWarning,0822.1,5.00,000.00,028.3,025.7,000.0,036.8,029.9,13.8,0000.0,0011.49,0005.19,0004.14
2023-10-23 19:03:00,SystemResetWarning,0822.1,5.00,000.00,028.3,026.1,000.0,036.8,030.0,13.7,0000.0,0011.34,0005.14,0004.14
2023-10-23 19:04:00,SystemResetWarning,0822.2,5.00,000.00,028.4,026.4,000.0,036.8,030.1,13.8,0000.0,0012.05,0005.14,0004.14
2023-10-23 19:05:00,SystemResetWarning,0822.1,5.00,000.00,028.4,026.7,000.0,036.8,030.1,13.7,0000.0,0012.78,0005.16,0004.15
2023-10-23 19:06:00,SystemResetWarning,0822.2,5.00,000.00,028.4,027.0,000.0,036.8,030.2,13.7,0000.0,0013.05,0005.21,0004.15
2023-10-23 19:07:00,SystemResetWarning,0822.2,4.99,000.00,028.5,027.2,000.0,036.9,030.3,13.6,0000.0,0013.40,0005.22,0004.15
2023-10-23 19:08:00,SystemResetWarning,0822.1,5.00,000.00,028.5,027.3,000.0,036.9,030.4,13.4,0000.0,0014.48,0005.22,0004.14
2023-10-23 19:09:00,SystemResetWarning,0822.1,5.00,000.00,028.6,027.5,000.0,036.9,030.4,13.4,0000.0,0014.63,0005.29,0004.16
2023-10-23 19:10:00,SystemResetWarning,0822.1,4.99,000.00,028.6,026.4,000.0,036.9,030.4,13.3,0000.0,0014.35,0005.31,0004.17
2023-10-23 19:11:00,SystemResetWarning,0822.0,5.00,000.00,028.5,024.7,000.0,036.8,030.1,13.4,0000.0,0013.98,0005.31,0004.18
2023-10-23 19:12:00,SystemResetWarning,0822.0,5.00,000.00,028.4,024.4,000.0,036.8,030.0,13.7,0000.0,0014.55,0005.35,0004.19
2023-10-23 19:13:00,SystemResetWarning,0822.0,5.01,000.00,028.3,024.7,000.0,036.8,029.9,13.8,0000.0,0014.71,0005.38,0004.19
2023-10-23 19:14:00,SystemResetWarning,0821.9,5.00,000.00,028.3,025.1,000.0,036.8,029.8,14.1,0000.0,0014.84,0005.37,0004.19
2023-10-23 19:15:00,SystemResetWarning,0821.9,5.00,000.00,028.3,025.5,000.0,036.8,029.9,13.9,0000.0,0015.19,0005.37,0004.20
2023-10-23 19:16:00,SystemResetWarning,0822.0,4.99,000.00,028.3,026.0,000.0,036.8,029.9,13.6,0000.0,0014.91,0005.34,0004.19
2023-10-23 19:17:00,SystemResetWarning,0821.9,5.01,000.00,028.3,026.3,000.0,036.8,030.0,13.5,0000.0,0015.89,0005.27,0004.18
2023-10-23 19:18:00,SystemResetWarning,0821.9,5.01,000.00,028.3,026.6,000.0,036.8,030.1,13.5,0000.0,0016.25,0005.24,0004.18
2023-10-23 19:19:00,SystemResetWarning,0821.9,4.99,000.00,028.4,026.9,000.0,036.8,030.2,13.5,0000.0,0015.70,0005.24,0004.18
2023-10-23 19:20:00,SystemResetWarning,0821.9,5.00,000.00,028.4,027.1,000.0,036.8,030.2,13.6,0000.0,0015.41,0005.18,0004.17
2023-10-23 19:21:00,SystemResetWarning,0821.9,5.00,000.00,028.5,027.3,000.0,036.8,030.3,13.8,0000.0,0017.21,0005.15,0004.16
2023-10-23 19:22:00,SystemResetWarning,0821.9,5.00,000.00,028.5,027.5,000.0,036.9,030.4,13.6,0000.0,0017.16,0005.16,0004.16
2023-10-23 19:23:00,SystemResetWarning,0822.0,4.99,000.00,028.6,027.0,000.0,036.9,030.4,13.5,0000.0,0016.31,0005.15,0004.16
2023-10-23 19:24:00,SystemResetWarning,0822.0,5.00,000.00,028.5,025.2,000.0,036.8,030.1,13.5,0000.0,0016.56,0005.11,0004.17
2023-10-23 19:25:00,SystemResetWarning,0821.9,5.00,000.00,028.4,024.3,000.0,036.7,030.0,13.8,0000.0,0017.54,0005.15,0004.17
2023-10-23 19:26:00,SystemResetWarning,0821.8,5.02,000.00,028.3,024.6,000.0,036.7,029.9,13.9,0000.0,0017.76,0005.22,0004.17
2023-10-23 19:27:00,SystemResetWarning,0821.8,4.99,000.00,028.3,024.9,000.0,036.7,029.8,13.9,0000.0,0017.35,0005.22,0004.19
2023-10-23 19:28:00,SystemResetWarning,0821.8,4.99,000.00,028.2,025.4,000.0,036.8,029.8,14.0,0000.0,0016.37,0005.20,0004.19
2023-10-23 19:29:00,SystemResetWarning,0821.8,5.00,000.00,028.2,025.8,000.0,036.8,029.9,13.9,0000.0,0016.54,0005.23,0004.19
2023-10-23 19:30:00,SystemResetWarning,0821.8,5.01,000.00,028.3,026.2,000.0,036.8,030.0,13.8,0000.0,0015.99,0005.21,0004.18
2023-10-23 19:31:00,SystemResetWarning,0821.8,5.01,000.00,028.3,026.5,000.0,036.8,030.0,13.7,0000.0,0015.72,0005.23,0004.17
2023-10-23 19:32:00,SystemResetWarning,0821.8,5.00,000.00,028.3,026.8,000.0,036.8,030.1,13.6,0000.0,0013.87,0005.20,0004.16
2023-10-23 19:33:00,SystemResetWarning,0821.8,5.00,000.00,028.4,027.0,000.0,036.8,030.2,13.5,0000.0,0013.95,0005.18,0004.16
2023-10-23 19:34:00,SystemResetWarning,0821.8,5.00,000.00,028.4,027.2,000.0,036.8,030.3,13.5,0000.0,0013.81,0005.13,0004.16
2023-10-23 19:35:00,SystemResetWarning,0821.8,5.00,000.00,028.5,027.4,000.0,036.8,030.3,13.6,0000.0,0013.67,0005.13,0004.16
2023-10-23 19:36:00,SystemResetWarning,0821.8,5.00,000.00,028.5,027.3,000.0,036.9,030.4,13.5,0000.0,0012.74,0005.17,0004.16
2023-10-23 19:37:00,SystemResetWarning,0821.7,4.98,000.00,028.5,025.8,000.0,036.8,030.3,13.4,0000.0,0012.00,0005.13,0004.17
2023-10-23 19:38:00,SystemResetWarning,0821.7,5.01,000.00,028.4,024.4,000.0,036.8,030.0,13.5,0000.0,0012.10,0005.17,0004.17
2023-10-23 19:39:00,SystemResetWarning,0821.7,5.02,000.00,028.4,024.5,000.0,036.7,029.9,13.4,0000.0,0012.13,0005.18,0004.17
2023-10-23 19:40:00,SystemResetWarning,0821.7,4.99,000.00,028.3,024.8,000.0,036.7,029.8,13.5,0000.0,0011.25,0005.14,0004.18
2023-10-23 19:41:00,SystemResetWarning,0821.7,5.00,000.00,028.2,025.2,000.0,036.7,029.8,13.5,0000.0,0011.45,0005.23,0004.20
2023-10-23 19:42:00,SystemResetWarning,0821.7,5.01,000.00,028.2,025.7,000.0,036.7,029.9,13.5,0000.0,0012.56,0005.27,0004.22
2023-10-23 19:43:00,SystemResetWarning,0821.7,5.00,000.00,028.3,026.1,000.0,036.7,030.0,13.5,0000.0,0013.50,0005.30,0004.24
2023-10-23 19:44:00,SystemResetWarning,0821.7,4.99,000.00,028.3,026.4,000.0,036.8,030.0,13.6,0000.0,0013.89,0005.28,0004.24
2023-10-23 19:45:00,SystemResetWarning,0821.7,5.00,000.00,028.3,026.7,000.0,036.8,030.1,13.5,0000.0,0014.28,0005.31,0004.23
2023-10-23 19:46:00,SystemResetWarning,0821.7,5.00,000.00,028.4,027.0,000.0,036.8,030.2,13.8,0000.0,0014.37,0005.33,0004.24
2023-10-23 19:47:00,SystemResetWarning,0821.7,5.00,000.00,028.4,027.2,000.0,036.8,030.3,13.8,0000.0,0015.20,0005.31,0004.24
2023-10-23 19:48:00,SystemResetWarning,0821.7,4.99,000.00,028.5,027.4,000.0,036.8,030.4,13.7,0000.0,0015.60,0005.34,0004.24
2023-10-23 19:49:00,SystemResetWarning,0821.6,4.99,000.00,028.5,026.2,000.0,036.8,030.3,13.4,0000.0,0015.30,0005.31,0004.25
2023-10-23 19:50:00,SystemResetWarning,0821.6,5.01,000.00,028.4,024.5,000.0,036.7,030.0,13.3,0000.0,0015.01,0005.29,0004.25
2023-10-23 19:51:00,SystemResetWarning,0821.5,5.01,000.00,028.3,024.3,000.0,036.7,029.9,13.2,0000.0,0015.15,0005.31,0004.25
2023-10-23 19:52:00,SystemResetWarning,0821.5,5.00,000.00,028.3,024.6,000.0,036.7,029.8,13.3,0000.0,0014.95,0005.24,0004.24
2023-10-23 19:53:00,SystemResetWarning,0821.6,5.00,000.00,028.2,025.1,000.0,036.7,029.8,13.4,0000.0,0014.25,0005.26,0004.23
2023-10-23 19:54:00,SystemResetWarning,0821.8,5.00,000.00,028.2,025.5,000.0,036.7,029.8,13.4,0000.0,0013.48,0005.24,0004.23
2023-10-23 19:55:00,SystemResetWarning,0822.0,5.01,000.00,028.2,025.9,000.0,036.7,029.9,13.4,0000.0,0012.68,0005.24,0004.22
2023-10-23 19:56:00,SystemResetWarning,0822.0,4.99,000.00,028.2,026.3,000.0,036.7,030.0,13.6,0000.0,0012.27,0005.24,0004.23
2023-10-23 19:57:00,SystemResetWarning,0822.0,4.99,000.00,028.3,026.6,000.0,036.7,030.1,13.5,0000.0,0012.64,0005.21,0004.23
2023-10-23 19:58:00,SystemResetWarning,0822.0,5.00,000.00,028.3,026.9,000.0,036.7,030.1,13.5,0000.0,0012.46,0005.20,0004.22
2023-10-23 19:59:00,SystemResetWarning,0821.7,5.00,000.00,028.4,027.1,000.0,036.8,030.2,13.4,0000.0,0011.65,0005.18,0004.22
